TimeCDT,TemperatureF,Dew PointF,Humidity,Sea Level PressureIn,VisibilityMPH,Wind Direction,Wind SpeedMPH,Gust SpeedMPH,PrecipitationIn,Events,Conditions,WindDirDegrees,DateUTC
12:01 AM,27.0,19.0,72,30.04,10.0,North,-9999.0,-,N/A,,Mostly Cloudy,0,2013-03-25 05:01:00
12:52 AM,26.1,19.0,75,30.08,10.0,NW,13.8,21.9,N/A,,Clear,310,2013-03-25 05:52:00
1:52 AM,25.0,18.0,75,30.06,10.0,NW,15.0,21.9,N/A,,Clear,310,2013-03-25 06:52:00
2:22 AM,25.0,19.0,78,30.02,10.0,WNW,8.1,-,N/A,,Mostly Cloudy,290,2013-03-25 07:22:00
2:48 AM,24.8,19.4,80,30.02,10.0,WNW,9.2,-,N/A,,Scattered Clouds,290,2013-03-25 07:48:00
2:52 AM,24.1,18.0,77,30.06,10.0,WNW,9.2,-,N/A,,Scattered Clouds,290,2013-03-25 07:52:00
3:52 AM,24.1,18.0,77,30.06,10.0,WNW,11.5,-,N/A,,Mostly Cloudy,300,2013-03-25 08:52:00
4:52 AM,23.0,17.1,78,30.07,10.0,West,15.0,21.9,N/A,,Mostly Cloudy,280,2013-03-25 09:52:00
5:52 AM,24.1,17.1,75,30.08,7.0,West,15.0,23.0,0.00,Snow,Light Snow,280,2013-03-25 10:52:00
6:52 AM,23.0,18.0,81,30.09,4.0,WNW,12.7,19.6,0.00,Snow,Light Snow,290,2013-03-25 11:52:00
7:10 AM,23.0,18.0,81,30.05,4.0,WNW,10.4,20.7,0.00,Snow,Light Snow,290,2013-03-25 12:10:00
7:31 AM,23.0,18.0,81,30.06,5.0,WNW,10.4,-,0.00,Snow,Light Snow,290,2013-03-25 12:31:00
7:52 AM,23.0,19.0,85,30.11,4.0,WNW,10.4,-,0.00,Snow,Light Snow,300,2013-03-25 12:52:00
8:52 AM,24.1,19.0,81,30.14,3.0,WNW,12.7,21.9,0.00,Snow,Light Snow,290,2013-03-25 13:52:00
9:52 AM,25.0,21.0,85,30.15,9.0,WNW,11.5,19.6,0.00,,Overcast,290,2013-03-25 14:52:00
10:52 AM,26.1,21.9,84,30.18,9.0,WNW,13.8,21.9,N/A,,Overcast,290,2013-03-25 15:52:00
11:52 AM,27.0,21.9,81,30.20,10.0,WNW,15.0,23.0,N/A,,Overcast,290,2013-03-25 16:52:00
12:50 PM,28.4,21.2,74,30.16,10.0,WNW,15.0,-,N/A,,Overcast,300,2013-03-25 17:50:00
12:52 PM,28.0,21.9,78,30.21,10.0,WNW,12.7,21.9,N/A,,Overcast,300,2013-03-25 17:52:00
1:52 PM,30.9,23.0,72,30.20,10.0,WNW,11.5,21.9,N/A,,Overcast,290,2013-03-25 18:52:00
2:52 PM,30.9,23.0,72,30.20,10.0,WNW,15.0,21.9,N/A,,Overcast,300,2013-03-25 19:52:00
3:12 PM,32.0,24.1,73,30.17,10.0,WNW,15.0,24.2,N/A,,Overcast,290,2013-03-25 20:12:00
3:26 PM,30.9,21.9,69,30.17,10.0,WNW,15.0,24.2,N/A,,Overcast,300,2013-03-25 20:26:00
3:36 PM,32.0,23.0,69,30.17,10.0,WNW,17.3,27.6,N/A,,Overcast,300,2013-03-25 20:36:00
3:52 PM,30.9,23.0,72,30.22,10.0,WNW,15.0,25.3,0.00,,Overcast,300,2013-03-25 20:52:00
4:00 PM,30.9,21.9,69,30.18,10.0,WNW,12.7,24.2,N/A,,Overcast,290,2013-03-25 21:00:00
4:36 PM,32.0,21.0,64,30.18,10.0,WNW,17.3,28.8,N/A,,Overcast,290,2013-03-25 21:36:00
4:52 PM,32.0,21.0,64,30.22,10.0,West,20.7,32.2,N/A,,Overcast,280,2013-03-25 21:52:00
5:52 PM,30.9,21.0,67,30.24,10.0,WNW,13.8,24.2,N/A,,Overcast,300,2013-03-25 22:52:00
6:52 PM,30.0,21.0,69,30.26,10.0,WNW,12.7,20.7,N/A,,Overcast,290,2013-03-25 23:52:00
7:52 PM,30.0,21.0,69,30.27,10.0,WNW,11.5,-,N/A,,Overcast,300,2013-03-26 00:52:00
8:52 PM,30.0,21.9,72,30.28,10.0,WNW,11.5,20.7,N/A,,Overcast,300,2013-03-26 01:52:00
9:52 PM,28.9,21.9,75,30.30,10.0,WNW,9.2,-,N/A,,Overcast,300,2013-03-26 02:52:00
10:52 PM,28.9,23.0,78,30.31,10.0,NW,12.7,-,0.00,,Mostly Cloudy,310,2013-03-26 03:52:00
10:59 PM,28.9,23.0,78,30.27,10.0,WNW,8.1,-,N/A,,Mostly Cloudy,300,2013-03-26 03:59:00
11:10 PM,28.9,23.0,78,30.28,10.0,WNW,9.2,-,N/A,,Mostly Cloudy,300,2013-03-26 04:10:00
11:52 PM,28.9,23.0,78,30.32,10.0,North,-9999.0,-,N/A,,Mostly Cloudy,0,2013-03-26 04:52:00